Date String (YYYY-MM-DD hh:mm:ss) UTC,Instrument flags,Ambient pressure (hPa),Sample flow (lpm),Bypass flow (lpm),Sample temperature (°C),Ambient temperature (°C),ASC tube jacket temperature (°C),LED temperature (°C),Box temperature (°C),Sample RH (%),Span deviation,Mass concentration (μg/m³),Mass concentration (μg/m³),Mass concentration (μg/m³)
DateTimeUTC,F1_M11,P_M11,Q1_M11,Q2_M11,T1_M11,T2_M11,T3_M11,T4_M11,T5_M11,U1_M11,ZSPAN_M11,X0_M11,X2_M11,X1_M11
2021-11-28 09:00:00,,0831.5,5.00,0.00,23.3,22.4,00.0,32.4,25.0,13.9,0000.0,0009.04,0002.06,0001.22
2021-11-28 09:01:00,,0831.5,4.99,0.00,23.3,22.4,00.0,32.4,25.0,13.9,0000.0,0008.68,0002.02,0001.23
2021-11-28 09:02:00,,0831.5,5.00,0.00,23.3,22.3,00.0,32.4,25.1,13.9,0000.0,0009.35,0002.05,0001.23
2021-11-28 09:03:00,,0831.5,5.00,0.00,23.3,22.3,00.0,32.3,25.0,13.9,0000.0,0009.43,0002.07,0001.22
2021-11-28 09:04:00,,0831.4,5.00,0.00,23.3,22.3,00.0,32.3,25.0,13.9,0000.0,0008.94,0002.07,0001.21
2021-11-28 09:05:00,,0831.4,4.99,0.00,23.3,22.3,00.0,32.3,25.0,13.9,0000.0,0009.22,0002.16,0001.21
2021-11-28 09:06:00,,0831.4,5.00,0.00,23.3,22.3,00.0,32.3,25.0,13.9,0000.0,0009.96,0002.13,0001.20
2021-11-28 09:07:00,,0831.4,5.00,0.00,23.3,22.3,00.0,32.3,25.0,14.0,0000.0,0009.40,0002.16,0001.20
2021-11-28 09:08:00,,0831.3,4.99,0.00,23.3,22.3,00.0,32.3,25.0,14.0,0000.0,0008.94,0002.14,0001.19
2021-11-28 09:09:00,,0831.3,5.01,0.00,23.2,22.3,00.0,32.3,25.0,13.9,0000.0,0009.06,0002.11,0001.18
2021-11-28 09:10:00,,0831.3,5.00,0.00,23.2,22.3,00.0,32.3,24.9,14.0,0000.0,0009.65,0002.09,0001.19
2021-11-28 09:11:00,,0831.4,5.01,0.00,23.2,22.3,00.0,32.3,24.9,13.9,0000.0,0009.73,0002.16,0001.22
2021-11-28 09:12:00,,0831.3,5.00,0.00,23.2,22.3,00.0,32.3,24.9,13.9,0000.0,0009.39,0002.14,0001.22
2021-11-28 09:13:00,,0831.3,5.00,0.00,23.2,22.3,00.0,32.3,24.9,13.9,0000.0,0008.80,0002.14,0001.22
2021-11-28 09:14:00,,0831.3,5.01,0.00,23.2,22.3,00.0,32.3,24.9,13.9,0000.0,0008.66,0002.07,0001.22
2021-11-28 09:15:00,,0831.4,5.01,0.00,23.2,22.3,00.0,32.3,24.9,13.9,0000.0,0008.53,0002.04,0001.23
2021-11-28 09:16:00,,0831.2,4.99,0.00,23.2,22.2,00.0,32.3,24.9,13.9,0000.0,0008.52,0001.99,0001.22
2021-11-28 09:17:00,,0831.2,5.01,0.00,23.2,22.2,00.0,32.2,24.8,14.0,0000.0,0007.84,0002.03,0001.23
2021-11-28 09:18:00,,0831.2,5.00,0.00,23.2,22.2,00.0,32.2,24.9,14.0,0000.0,0007.95,0002.07,0001.23
2021-11-28 09:19:00,,0831.2,5.00,0.00,23.2,22.2,00.0,32.2,24.9,14.0,0000.0,0008.04,0002.08,0001.22
2021-11-28 09:20:00,,0831.2,5.01,0.00,23.2,22.2,00.0,32.2,24.9,14.0,0000.0,0007.11,0002.08,0001.22
2021-11-28 09:21:00,,0831.3,4.99,0.00,23.1,22.2,00.0,32.2,24.9,14.0,0000.0,0005.57,0002.04,0001.20
2021-11-28 09:22:00,,0831.3,5.01,0.00,23.1,22.2,00.0,32.2,24.9,14.0,0000.0,0005.50,0002.01,0001.18
2021-11-28 09:23:00,,0831.4,4.99,0.00,23.1,22.2,00.0,32.2,24.9,14.0,0000.0,0005.92,0002.00,0001.17
2021-11-28 09:24:00,,0831.3,5.01,0.00,23.1,22.2,00.0,32.2,24.9,14.0,0000.0,0006.82,0001.95,0001.16
2021-11-28 09:25:00,,0831.2,5.00,0.00,23.1,22.2,00.0,32.2,24.8,14.1,0000.0,0007.91,0001.95,0001.16
2021-11-28 09:26:00,,0831.2,4.99,0.00,23.1,22.2,00.0,32.2,24.8,14.1,0000.0,0008.10,0002.01,0001.15
2021-11-28 09:27:00,,0831.2,5.00,0.00,23.1,22.1,00.0,32.2,24.8,14.1,0000.0,0008.00,0002.03,0001.14
2021-11-28 09:28:00,,0831.2,5.00,0.00,23.1,22.1,00.0,32.1,24.8,14.1,0000.0,0007.84,0001.96,0001.13
2021-11-28 09:29:00,,0831.2,5.00,0.00,23.1,22.1,00.0,32.1,24.8,14.1,0000.0,0007.54,0001.88,0001.12
2021-11-28 09:30:00,,0831.2,4.99,0.00,23.1,22.1,00.0,32.1,24.8,14.1,0000.0,0007.11,0001.84,0001.11
2021-11-28 09:31:00,,0831.2,5.01,0.00,23.0,22.1,00.0,32.1,24.8,14.1,0000.0,0007.01,0001.86,0001.11
2021-11-28 09:32:00,,0831.2,5.00,0.00,23.0,22.1,00.0,32.1,24.8,14.1,0000.0,0006.88,0001.86,0001.12
2021-11-28 09:33:00,,0831.2,5.00,0.00,23.0,22.1,00.0,32.1,24.7,14.1,0000.0,0007.36,0001.88,0001.12
2021-11-28 09:34:00,,0831.2,5.00,0.00,23.0,22.1,00.0,32.1,24.7,14.1,0000.0,0007.57,0001.89,0001.12
2021-11-28 09:35:00,,0831.2,5.00,0.00,23.0,22.1,00.0,32.1,24.7,14.2,0000.0,0007.38,0001.89,0001.12
2021-11-28 09:36:00,,0831.2,4.99,0.00,23.0,22.0,00.0,32.1,24.7,14.2,0000.0,0006.39,0001.86,0001.11
2021-11-28 09:37:00,,0831.2,5.01,0.00,23.0,22.0,00.0,32.1,24.7,14.2,0000.0,0006.34,0001.76,0001.09
2021-11-28 09:38:00,,0831.2,5.00,0.00,23.0,22.1,00.0,32.1,24.7,14.2,0000.0,0006.18,0001.70,0001.09
2021-11-28 09:39:00,,0831.2,4.99,0.00,23.0,22.0,00.0,32.1,24.7,14.2,0000.0,0006.28,0001.76,0001.10
2021-11-28 09:40:00,,0831.2,5.00,0.00,23.0,22.0,00.0,32.0,24.7,14.2,0000.0,0006.57,0001.81,0001.09
2021-11-28 09:41:00,,0831.2,5.00,0.00,23.0,22.0,00.0,32.0,24.7,14.2,0000.0,0006.46,0001.83,0001.10
2021-11-28 09:42:00,,0831.2,5.00,0.00,23.0,22.0,00.0,32.0,24.7,14.2,0000.0,0006.62,0001.81,0001.10
2021-11-28 09:43:00,,0831.2,5.00,0.00,23.0,22.0,00.0,32.0,24.7,14.2,0000.0,0006.73,0001.83,0001.10
2021-11-28 09:44:00,,0831.2,4.99,0.00,22.9,22.0,00.0,32.0,24.7,14.2,0000.0,0006.23,0001.82,0001.09
2021-11-28 09:45:00,,0831.2,4.99,0.00,22.9,22.0,00.0,32.0,24.7,14.3,0000.0,0005.56,0001.77,0001.08
2021-11-28 09:46:00,,0831.2,5.01,0.00,22.9,22.0,00.0,32.0,24.7,14.3,0000.0,0004.98,0001.79,0001.09
2021-11-28 09:47:00,,0831.2,5.00,0.00,22.9,22.0,00.0,32.0,24.7,14.3,0000.0,0007.18,0001.79,0001.09
2021-11-28 09:48:00,,0831.2,4.99,0.00,22.9,22.0,00.0,32.0,24.7,14.3,0000.0,0007.14,0001.89,0001.11
2021-11-28 09:49:00,,0831.2,5.01,0.00,22.9,22.0,00.0,32.0,24.7,14.3,0000.0,0007.39,0001.95,0001.12
2021-11-28 09:50:00,,0831.2,5.01,0.00,22.9,22.0,00.0,32.0,24.7,14.3,0000.0,0007.49,0001.95,0001.12
2021-11-28 09:51:00,,0831.2,5.00,0.00,22.9,22.0,00.0,32.0,24.7,14.3,0000.0,0007.38,0001.89,0001.11
2021-11-28 09:52:00,,0831.2,5.01,0.00,22.9,22.0,00.0,32.0,24.6,14.3,0000.0,0007.45,0001.98,0001.13
2021-11-28 09:53:00,,0831.2,5.00,0.00,22.9,22.0,00.0,32.0,24.7,14.3,0000.0,0007.59,0002.07,0001.14
2021-11-28 09:54:00,,0831.2,5.00,0.00,22.9,22.0,00.0,32.0,24.7,14.3,0000.0,0008.20,0002.11,0001.14
2021-11-28 09:55:00,,0831.2,4.99,0.00,22.9,22.0,00.0,32.0,24.7,14.3,0000.0,0008.21,0002.10,0001.15
2021-11-28 09:56:00,,0831.1,5.01,0.00,22.9,22.0,00.0,32.0,24.7,14.3,0000.0,0008.23,0002.10,0001.15
2021-11-28 09:57:00,,0831.1,5.01,0.00,22.9,22.0,00.0,32.0,24.7,14.3,0000.0,0008.20,0002.07,0001.15
2021-11-28 09:58:00,,0831.0,5.00,0.00,22.9,21.9,00.0,31.9,24.6,14.3,0000.0,0007.05,0002.09,0001.16
2021-11-28 09:59:00,,0831.0,4.99,0.00,22.8,21.9,00.0,31.9,24.6,14.4,0000.0,0007.58,0002.07,0001.16
